If you wish to contribute or participate in the discussions about articles you are invited to join SKYbrary as a registered user

 Actions

A Coruña Airport

From SKYbrary Wiki

LECO
Airport
ICAO: LECO – IATA: LCG
Summary
Name A Coruña Airport
Region Europe
Territory Spain ES.gif
Location Alvedro, Galicia
Serving La Coruna
Elevation 99.365 m
326 ft
326 ft99.365 m
Type medium airport
Coordinates 43° 18' 7.42" N, 8° 22' 38.12" W
Runways
Designator Length Width Surface ROPS
4/22 1940 m6,364.829 ft
45 m147.638 ft
ASP no/no


METAR
Observation LECO 160530Z 18005KT 9999 FEW030 08/07 Q1015 NOSIG
Station La Coruna / Alvedro
Date/Time 16 December 2018 05:30:00
Wind direction 180°
Wind speed 05 kts
Lowest cloud amount few clouds
Temperature 8°C
Dew point 7°C
Humidity 93%
QNH 1015 hPa
Weather condition n/a

A Coruña Airport, formerly known as Alvedro Airport, is the airport serving the Galician city of A Coruña in northwestern Spain.

Climatology

humid oceanic climate with drier summers, (Köppen climate classification Cfb), heavily moderated by the Atlantic Ocean. Autumn and winter are often unsettled and unpredictable, with strong winds and abundant rainfall coming from Atlantic depressions, and it is often overcast.

Maps

Terrain

Loading map...

Airport Layout

Loading map...


Accidents & Serious Incidents at or in vicinity of LECO

None on SKYbrary